When you browse on this site, cookies collect data to enhance your experience and personalize the content and advertising you see.
Visit our Privacy Policy to learn more. By continuing to use the site, you agree to this use of cookies and data.
  • en France
  • Liste des pays
  • À 7 jours
  • Température de l'eau
  • Carte météo
  • Widgets météo
  • user-avatar
    Se connecter

    Météo par heure à Toronto

    Ce jour, 4 Juin, Jeudi

    Heure Température Précipitation Vent Pression Humidité
    00:00 +18°C° 0 mm 2 m/s 744 mmHg 69%
    01:00 +18°C° 0 mm 2 m/s 744 mmHg 66%
    02:00 +18°C° 0 mm 2 m/s 744 mmHg 64%
    03:00 +18°C° 0 mm 2 m/s 744 mmHg 62%
    04:00 +18°C° 0 mm 2 m/s 744 mmHg 60%
    05:00 +18°C° 0 mm 2 m/s 744 mmHg 60%
    06:00 +19°C° 0 mm 3 m/s 744 mmHg 61%
    07:00 +19°C° 0 mm 3 m/s 745 mmHg 61%
    08:00 +21°C° 0 mm 3 m/s 745 mmHg 58%
    09:00 +24°C° 0 mm 3 m/s 745 mmHg 56%
    10:00 +26°C° 0 mm 3 m/s 745 mmHg 53%
    11:00 +27°C° 0.1 mm 4 m/s 745 mmHg 52%
    12:00 +28°C° 0.1 mm 4 m/s 745 mmHg 50%
    13:00 +29°C° 0.1 mm 4 m/s 745 mmHg 49%
    14:00 +29°C° 0.1 mm 3 m/s 745 mmHg 48%
    15:00 +29°C° 0.1 mm 3 m/s 745 mmHg 48%
    16:00 +29°C° 0.1 mm 3 m/s 744 mmHg 48%
    17:00 +28°C° 0 mm 3 m/s 745 mmHg 51%
    18:00 +27°C° 0 mm 2 m/s 745 mmHg 55%
    19:00 +26°C° 0 mm 2 m/s 745 mmHg 58%
    20:00 +25°C° 0 mm 2 m/s 745 mmHg 63%
    21:00 +24°C° 0 mm 2 m/s 745 mmHg 68%
    22:00 +21°C° 0 mm 2 m/s 745 mmHg 73%
    23:00 +22°C° 0 mm 1 m/s 745 mmHg 75%

    Demain, 5 Juin, Vendredi

    Heure Température Précipitation Vent Pression Humidité
    00:00 +21°C° 0 mm 1 m/s 745 mmHg 76%
    01:00 +21°C° 0 mm 1 m/s 745 mmHg 78%
    02:00 +21°C° 0 mm 1 m/s 745 mmHg 78%
    03:00 +20°C° 0 mm 1 m/s 745 mmHg 78%
    04:00 +20°C° 0 mm 1 m/s 745 mmHg 79%
    05:00 +21°C° 0 mm 1 m/s 745 mmHg 76%
    06:00 +22°C° 0 mm 1 m/s 745 mmHg 74%
    07:00 +22°C° 0 mm 1 m/s 745 mmHg 72%
    08:00 +24°C° 0 mm 1 m/s 745 mmHg 66%
    09:00 +25°C° 0 mm 2 m/s 745 mmHg 61%
    10:00 +27°C° 0 mm 2 m/s 745 mmHg 56%
    11:00 +27°C° 0 mm 2 m/s 745 mmHg 55%
    12:00 +28°C° 0 mm 3 m/s 745 mmHg 54%
    13:00 +29°C° 0 mm 3 m/s 745 mmHg 53%
    14:00 +29°C° 0 mm 3 m/s 744 mmHg 54%
    15:00 +30°C° 0 mm 3 m/s 744 mmHg 55%
    16:00 +30°C° 0 mm 4 m/s 744 mmHg 55%
    17:00 +29°C° 0.1 mm 3 m/s 744 mmHg 58%
    18:00 +28°C° 0.1 mm 3 m/s 744 mmHg 60%
    19:00 +27°C° 0.1 mm 3 m/s 744 mmHg 63%
    20:00 +26°C° 0.1 mm 3 m/s 744 mmHg 67%
    21:00 +25°C° 0.1 mm 3 m/s 744 mmHg 71%
    22:00 +24°C° 0.1 mm 3 m/s 744 mmHg 75%
    23:00 +22°C° 0.2 mm 3 m/s 744 mmHg 77%

    Après-demain, 6 Juin, Samedi

    Heure Température Précipitation Vent Pression Humidité
    00:00 +21°C° 0.2 mm 4 m/s 744 mmHg 78%
    01:00 +20°C° 0.2 mm 5 m/s 744 mmHg 80%
    02:00 +19°C° 0 mm 5 m/s 744 mmHg 74%
    03:00 +18°C° 0 mm 4 m/s 744 mmHg 69%
    04:00 +17°C° 0 mm 4 m/s 745 mmHg 63%
    05:00 +16°C° 0 mm 5 m/s 745 mmHg 61%
    06:00 +17°C° 0 mm 5 m/s 746 mmHg 59%
    07:00 +17°C° 0 mm 6 m/s 746 mmHg 57%
    08:00 +19°C° 0 mm 6 m/s 746 mmHg 54%
    09:00 +20°C° 0 mm 6 m/s 747 mmHg 51%
    10:00 +21°C° 0 mm 6 m/s 747 mmHg 48%
    11:00 +22°C° 0 mm 6 m/s 747 mmHg 48%
    12:00 +22°C° 0 mm 6 m/s 747 mmHg 48%
    13:00 +22°C° 0 mm 6 m/s 747 mmHg 48%
    14:00 +21°C° 0 mm 6 m/s 747 mmHg 52%
    15:00 +21°C° 0 mm 6 m/s 747 mmHg 55%
    16:00 +20°C° 0 mm 7 m/s 747 mmHg 59%
    17:00 +18°C° 0 mm 7 m/s 748 mmHg 61%
    18:00 +17°C° 0 mm 6 m/s 748 mmHg 63%
    19:00 +15°C° 0 mm 6 m/s 748 mmHg 65%
    20:00 +15°C° 0 mm 6 m/s 749 mmHg 66%
    21:00 +14°C° 0 mm 5 m/s 749 mmHg 67%
    22:00 +13°C° 0 mm 5 m/s 749 mmHg 68%
    23:00 +13°C° 0 mm 5 m/s 750 mmHg 68%

    7 Juin, Dimanche

    Heure Température Précipitation Vent Pression Humidité
    00:00 +12°C° 0 mm 4 m/s 750 mmHg 68%
    01:00 +12°C° 0 mm 4 m/s 750 mmHg 68%
    02:00 +11°C° 0 mm 4 m/s 750 mmHg 69%
    03:00 +11°C° 0 mm 4 m/s 750 mmHg 69%
    04:00 +10°C° 0 mm 4 m/s 750 mmHg 70%
    05:00 +10°C° 0 mm 4 m/s 751 mmHg 69%
    06:00 +10°C° 0 mm 5 m/s 752 mmHg 67%
    07:00 +10°C° 0 mm 5 m/s 752 mmHg 66%
    08:00 +12°C° 0 mm 4 m/s 753 mmHg 61%
    09:00 +14°C° 0 mm 4 m/s 753 mmHg 56%
    10:00 +16°C° 0 mm 3 m/s 753 mmHg 51%
    11:00 +17°C° 0 mm 3 m/s 753 mmHg 50%
    12:00 +18°C° 0 mm 3 m/s 752 mmHg 49%
    13:00 +19°C° 0 mm 3 m/s 752 mmHg 47%
    14:00 +19°C° 0 mm 3 m/s 752 mmHg 48%
    15:00 +19°C° 0 mm 3 m/s 752 mmHg 48%
    16:00 +19°C° 0 mm 3 m/s 752 mmHg 49%
    17:00 +18°C° 0 mm 3 m/s 752 mmHg 51%
    18:00 +17°C° 0 mm 3 m/s 752 mmHg 54%
    19:00 +16°C° 0 mm 3 m/s 752 mmHg 56%
    20:00 +14°C° 0 mm 4 m/s 753 mmHg 57%
    21:00 +13°C° 0 mm 4 m/s 753 mmHg 57%
    22:00 +12°C° 0 mm 4 m/s 754 mmHg 58%
    23:00 +12°C° 0 mm 3 m/s 754 mmHg 60%

    8 Juin, Lundi

    Heure Température Précipitation Vent Pression Humidité
    00:00 +12°C° 0 mm 3 m/s 753 mmHg 62%
    01:00 +11°C° 0 mm 3 m/s 753 mmHg 64%
    02:00 +11°C° 0 mm 3 m/s 754 mmHg 65%
    03:00 +12°C° 0 mm 2 m/s 754 mmHg 66%
    04:00 +10°C° 0 mm 2 m/s 754 mmHg 67%
    05:00 +12°C° 0 mm 2 m/s 754 mmHg 64%
    06:00 +13°C° 0 mm 2 m/s 754 mmHg 61%
    07:00 +14°C° 0 mm 2 m/s 755 mmHg 59%
    08:00 +16°C° 0 mm 2 m/s 755 mmHg 52%
    09:00 +18°C° 0 mm 2 m/s 755 mmHg 45%
    10:00 +20°C° 0 mm 2 m/s 755 mmHg 39%
    11:00 +21°C° 0 mm 2 m/s 755 mmHg 37%
    12:00 +23°C° 0 mm 2 m/s 754 mmHg 35%
    13:00 +23°C° 0 mm 2 m/s 754 mmHg 34%
    14:00 +23°C° 0 mm 2 m/s 754 mmHg 34%
    15:00 +23°C° 0 mm 2 m/s 754 mmHg 34%
    16:00 +24°C° 0 mm 2 m/s 753 mmHg 34%
    17:00 +23°C° 0 mm 2 m/s 753 mmHg 36%
    18:00 +21°C° 0 mm 2 m/s 753 mmHg 39%
    19:00 +20°C° 0 mm 2 m/s 752 mmHg 41%
    20:00 +20°C° 0 mm 1 m/s 752 mmHg 41%
    21:00 +19°C° 0 mm 1 m/s 753 mmHg 40%
    22:00 +18°C° 0 mm 1 m/s 753 mmHg 40%
    23:00 +18°C° 0 mm 1 m/s 753 mmHg 41%

    9 Juin, Mardi

    Heure Température Précipitation Vent Pression Humidité
    00:00 +16°C° 0 mm 1 m/s 752 mmHg 42%
    01:00 +16°C° 0 mm 1 m/s 752 mmHg 44%
    02:00 +16°C° 0 mm 1 m/s 752 mmHg 46%
    03:00 +15°C° 0 mm 2 m/s 752 mmHg 48%
    04:00 +15°C° 0 mm 2 m/s 752 mmHg 50%
    05:00 +16°C° 0 mm 2 m/s 752 mmHg 51%
    06:00 +16°C° 0 mm 2 m/s 752 mmHg 51%
    07:00 +17°C° 0 mm 2 m/s 752 mmHg 51%
    08:00 +19°C° 0 mm 2 m/s 751 mmHg 50%
    09:00 +20°C° 0 mm 2 m/s 751 mmHg 48%
    10:00 +21°C° 0 mm 3 m/s 751 mmHg 47%
    11:00 +22°C° 0 mm 3 m/s 750 mmHg 45%
    12:00 +24°C° 0 mm 3 m/s 750 mmHg 44%
    13:00 +25°C° 0 mm 3 m/s 750 mmHg 43%
    14:00 +25°C° 0 mm 3 m/s 749 mmHg 44%
    15:00 +26°C° 0 mm 3 m/s 749 mmHg 44%
    16:00 +26°C° 0 mm 3 m/s 748 mmHg 45%
    17:00 +25°C° 0 mm 3 m/s 748 mmHg 50%
    18:00 +22°C° 0 mm 3 m/s 747 mmHg 54%
    19:00 +21°C° 0 mm 3 m/s 747 mmHg 59%
    20:00 +21°C° 0 mm 3 m/s 746 mmHg 62%
    21:00 +20°C° 0 mm 3 m/s 746 mmHg 66%
    22:00 +19°C° 0 mm 3 m/s 746 mmHg 69%
    23:00 +19°C° 0 mm 3 m/s 745 mmHg 73%
    Voir plus